Time,TemperatureF,DewpointF,PressureIn,WindDirection,WindDirectionDegrees,WindSpeedMPH,WindSpeedGustMPH,Humidity,HourlyPrecipIn,Conditions,Clouds,dailyrainin,SoftwareType,DateUTC
2013-02-28 00:01:00,50.0,-99.9,30.38,WNW,303,15.0,17.0,-999,-99.99,,,-99.99,,2013-02-28 08:01:00,
2013-02-28 00:12:00,50.0,-99.9,30.39,WNW,302,13.0,17.0,-999,-99.99,,,-99.99,,2013-02-28 08:12:00,
2013-02-28 00:22:00,50.0,-99.9,30.39,NW,312,14.0,16.0,-999,-99.99,,,-99.99,,2013-02-28 08:22:00,
2013-02-28 00:32:00,50.0,-99.9,30.39,NW,307,11.0,15.0,-999,-99.99,,,-99.99,,2013-02-28 08:32:00,
2013-02-28 00:42:00,50.0,-99.9,30.39,NW,320,9.0,12.0,-999,-99.99,,,-99.99,,2013-02-28 08:42:00,
2013-02-28 00:53:00,50.0,-99.9,30.39,NW,314,9.0,11.0,-999,-99.99,,,-99.99,,2013-02-28 08:53:00,
2013-02-28 01:04:00,50.0,-99.9,30.39,NW,307,11.0,13.0,-999,-99.99,,,-99.99,,2013-02-28 09:04:00,
2013-02-28 01:12:00,50.0,-99.9,30.39,WNW,297,11.0,15.0,-999,-99.99,,,-99.99,,2013-02-28 09:12:00,
2013-02-28 01:22:00,50.0,-99.9,30.39,WNW,289,13.0,17.0,-999,-99.99,,,-99.99,,2013-02-28 09:22:00,
2013-02-28 01:32:00,50.0,-99.9,30.39,WNW,286,14.0,17.0,-999,-99.99,,,-99.99,,2013-02-28 09:32:00,
2013-02-28 01:42:00,50.0,-99.9,30.39,WNW,286,15.0,18.0,-999,-99.99,,,-99.99,,2013-02-28 09:42:00,
2013-02-28 01:53:00,50.0,-99.9,30.39,WNW,287,16.0,18.0,-999,-99.99,,,-99.99,,2013-02-28 09:53:00,
2013-02-28 02:02:00,50.0,-99.9,30.39,WNW,289,18.0,20.0,-999,-99.99,,,-99.99,,2013-02-28 10:02:00,
2013-02-28 02:12:00,50.0,-99.9,30.39,WNW,287,18.0,21.0,-999,-99.99,,,-99.99,,2013-02-28 10:12:00,
2013-02-28 02:22:00,51.0,-99.9,30.39,WNW,292,16.0,22.0,-999,-99.99,,,-99.99,,2013-02-28 10:22:00,
2013-02-28 02:32:00,51.0,-99.9,30.39,WNW,291,17.0,19.0,-999,-99.99,,,-99.99,,2013-02-28 10:32:00,
2013-02-28 02:42:00,51.0,-99.9,30.40,WNW,292,18.0,21.0,-999,-99.99,,,-99.99,,2013-02-28 10:42:00,
2013-02-28 02:52:00,51.0,-99.9,30.40,WNW,292,19.0,22.0,-999,-99.99,,,-99.99,,2013-02-28 10:52:00,
2013-02-28 03:02:00,50.0,-99.9,30.41,WNW,295,16.0,19.0,-999,-99.99,,,-99.99,,2013-02-28 11:02:00,
2013-02-28 03:11:00,50.0,-99.9,30.40,WNW,302,15.0,18.0,-999,-99.99,,,-99.99,,2013-02-28 11:11:00,
2013-02-28 03:22:00,50.0,-99.9,30.40,NW,306,13.0,16.0,-999,-99.99,,,-99.99,,2013-02-28 11:22:00,
2013-02-28 03:32:00,50.0,-99.9,30.40,NW,306,11.0,15.0,-999,-99.99,,,-99.99,,2013-02-28 11:32:00,
2013-02-28 03:42:00,50.0,-99.9,30.40,NW,308,11.0,15.0,-999,-99.99,,,-99.99,,2013-02-28 11:42:00,
2013-02-28 03:53:00,50.0,-99.9,30.39,NW,306,11.0,13.0,-999,-99.99,,,-99.99,,2013-02-28 11:53:00,
2013-02-28 04:02:00,50.0,-99.9,30.40,WNW,297,13.0,15.0,-999,-99.99,,,-99.99,,2013-02-28 12:02:00,
2013-02-28 04:12:00,50.0,-99.9,30.40,WNW,296,13.0,16.0,-999,-99.99,,,-99.99,,2013-02-28 12:12:00,
2013-02-28 04:22:00,50.0,-99.9,30.40,WNW,299,11.0,14.0,-999,-99.99,,,-99.99,,2013-02-28 12:22:00,
2013-02-28 04:32:00,50.0,-99.9,30.40,WNW,297,12.0,14.0,-999,-99.99,,,-99.99,,2013-02-28 12:32:00,
2013-02-28 04:42:00,50.0,-99.9,30.40,WNW,303,11.0,15.0,-999,-99.99,,,-99.99,,2013-02-28 12:42:00,
2013-02-28 04:53:00,50.0,-99.9,30.40,NW,304,10.0,14.0,-999,-99.99,,,-99.99,,2013-02-28 12:53:00,
2013-02-28 05:02:00,50.0,-99.9,30.40,NW,306,11.0,14.0,-999,-99.99,,,-99.99,,2013-02-28 13:02:00,
2013-02-28 05:12:00,50.0,-99.9,30.40,NW,304,10.0,13.0,-999,-99.99,,,-99.99,,2013-02-28 13:12:00,
2013-02-28 05:22:00,50.0,-99.9,30.40,NW,308,11.0,14.0,-999,-99.99,,,-99.99,,2013-02-28 13:22:00,
2013-02-28 05:32:00,50.0,-99.9,30.41,NW,308,12.0,15.0,-999,-99.99,,,-99.99,,2013-02-28 13:32:00,
2013-02-28 05:42:00,50.0,-99.9,30.42,NW,305,11.0,12.0,-999,-99.99,,,-99.99,,2013-02-28 13:42:00,
2013-02-28 05:52:00,50.0,-99.9,30.42,NW,306,11.0,14.0,-999,-99.99,,,-99.99,,2013-02-28 13:52:00,
2013-02-28 06:02:00,50.0,-99.9,30.42,NW,314,10.0,13.0,-999,-99.99,,,-99.99,,2013-02-28 14:02:00,
2013-02-28 06:12:00,50.0,-99.9,30.43,NW,310,11.0,13.0,-999,-99.99,,,-99.99,,2013-02-28 14:12:00,
2013-02-28 06:22:00,50.0,-99.9,30.42,NW,309,10.0,13.0,-999,-99.99,,,-99.99,,2013-02-28 14:22:00,
2013-02-28 06:32:00,50.0,-99.9,30.42,WNW,301,11.0,14.0,-999,-99.99,,,-99.99,,2013-02-28 14:32:00,
2013-02-28 06:42:00,50.0,-99.9,30.42,WNW,300,10.0,12.0,-999,-99.99,,,-99.99,,2013-02-28 14:42:00,
2013-02-28 06:52:00,50.0,-99.9,30.42,WNW,298,11.0,13.0,-999,-99.99,,,-99.99,,2013-02-28 14:52:00,
2013-02-28 07:02:00,50.0,-99.9,30.42,NW,306,12.0,16.0,-999,-99.99,,,-99.99,,2013-02-28 15:02:00,
2013-02-28 07:11:00,50.0,-99.9,30.42,WNW,299,13.0,16.0,-999,-99.99,,,-99.99,,2013-02-28 15:11:00,
2013-02-28 07:22:00,50.0,-99.9,30.42,WNW,294,11.0,17.0,-999,-99.99,,,-99.99,,2013-02-28 15:22:00,
2013-02-28 07:32:00,50.0,-99.9,30.43,WNW,294,10.0,15.0,-999,-99.99,,,-99.99,,2013-02-28 15:32:00,
2013-02-28 07:42:00,50.0,-99.9,30.43,WNW,290,12.0,14.0,-999,-99.99,,,-99.99,,2013-02-28 15:42:00,
2013-02-28 07:52:00,51.0,-99.9,30.43,WNW,297,13.0,16.0,-999,-99.99,,,-99.99,,2013-02-28 15:52:00,
2013-02-28 08:02:00,51.0,-99.9,30.43,WNW,294,14.0,19.0,-999,-99.99,,,-99.99,,2013-02-28 16:02:00,
2013-02-28 08:12:00,51.0,-99.9,30.44,WNW,299,13.0,17.0,-999,-99.99,,,-99.99,,2013-02-28 16:12:00,
2013-02-28 08:22:00,51.0,-99.9,30.44,NW,304,12.0,16.0,-999,-99.99,,,-99.99,,2013-02-28 16:22:00,
2013-02-28 08:32:00,52.0,-99.9,30.45,WNW,292,16.0,19.0,-999,-99.99,,,-99.99,,2013-02-28 16:32:00,
2013-02-28 08:43:00,52.0,-99.9,30.46,WNW,293,17.0,21.0,-999,-99.99,,,-99.99,,2013-02-28 16:43:00,
2013-02-28 08:53:00,52.0,-99.9,30.46,WNW,298,15.0,19.0,-999,-99.99,,,-99.99,,2013-02-28 16:53:00,
2013-02-28 09:02:00,52.0,-99.9,30.46,WNW,303,16.0,19.0,-999,-99.99,,,-99.99,,2013-02-28 17:02:00,
2013-02-28 09:12:00,51.0,-99.9,30.47,WNW,301,16.0,19.0,-999,-99.99,,,-99.99,,2013-02-28 17:12:00,
2013-02-28 09:22:00,51.0,-99.9,30.47,NW,306,16.0,20.0,-999,-99.99,,,-99.99,,2013-02-28 17:22:00,
2013-02-28 09:33:00,51.0,-99.9,30.48,WNW,302,16.0,21.0,-999,-99.99,,,-99.99,,2013-02-28 17:33:00,
2013-02-28 09:42:00,50.0,-99.9,30.48,WNW,298,17.0,19.0,-999,-99.99,,,-99.99,,2013-02-28 17:42:00,
2013-02-28 09:53:00,50.0,-99.9,30.47,WNW,291,15.0,21.0,-999,-99.99,,,-99.99,,2013-02-28 17:53:00,
2013-02-28 10:02:00,50.0,-99.9,30.47,WNW,301,14.0,16.0,-999,-99.99,,,-99.99,,2013-02-28 18:02:00,
2013-02-28 10:12:00,51.0,-99.9,30.47,WNW,301,12.0,17.0,-999,-99.99,,,-99.99,,2013-02-28 18:12:00,
2013-02-28 10:22:00,51.0,-99.9,30.47,WNW,295,11.0,15.0,-999,-99.99,,,-99.99,,2013-02-28 18:22:00,
2013-02-28 10:32:00,51.0,-99.9,30.47,WNW,287,14.0,19.0,-999,-99.99,,,-99.99,,2013-02-28 18:32:00,
2013-02-28 10:43:00,50.0,-99.9,30.47,WNW,303,16.0,20.0,-999,-99.99,,,-99.99,,2013-02-28 18:43:00,
2013-02-28 10:53:00,51.0,-99.9,30.47,WNW,297,15.0,20.0,-999,-99.99,,,-99.99,,2013-02-28 18:53:00,
2013-02-28 11:02:00,51.0,-99.9,30.47,WNW,294,18.0,20.0,-999,-99.99,,,-99.99,,2013-02-28 19:02:00,
2013-02-28 11:12:00,51.0,-99.9,30.47,WNW,293,15.0,22.0,-999,-99.99,,,-99.99,,2013-02-28 19:12:00,
2013-02-28 11:22:00,51.0,-99.9,30.48,WNW,298,16.0,19.0,-999,-99.99,,,-99.99,,2013-02-28 19:22:00,
2013-02-28 11:32:00,51.0,-99.9,30.48,WNW,299,15.0,20.0,-999,-99.99,,,-99.99,,2013-02-28 19:32:00,
2013-02-28 11:42:00,50.0,-99.9,30.47,WNW,298,17.0,21.0,-999,-99.99,,,-99.99,,2013-02-28 19:42:00,
2013-02-28 11:52:00,50.0,-99.9,30.47,NW,305,17.0,21.0,-999,-99.99,,,-99.99,,2013-02-28 19:52:00,
2013-02-28 12:01:00,50.0,-99.9,30.47,NW,310,15.0,19.0,-999,-99.99,,,-99.99,,2013-02-28 20:01:00,
2013-02-28 12:12:00,50.0,-99.9,30.47,NW,320,14.0,17.0,-999,-99.99,,,-99.99,,2013-02-28 20:12:00,
2013-02-28 12:22:00,50.0,-99.9,30.47,NW,304,13.0,18.0,-999,-99.99,,,-99.99,,2013-02-28 20:22:00,
2013-02-28 12:32:00,50.0,-99.9,30.48,WNW,300,13.0,16.0,-999,-99.99,,,-99.99,,2013-02-28 20:32:00,
2013-02-28 12:42:00,50.0,-99.9,30.47,NW,309,16.0,18.0,-999,-99.99,,,-99.99,,2013-02-28 20:42:00,
2013-02-28 12:52:00,50.0,-99.9,30.47,NW,310,12.0,17.0,-999,-99.99,,,-99.99,,2013-02-28 20:52:00,
2013-02-28 13:02:00,49.0,-99.9,30.46,NW,311,12.0,14.0,-999,-99.99,,,-99.99,,2013-02-28 21:02:00,
2013-02-28 13:11:00,50.0,-99.9,30.46,NW,320,13.0,17.0,-999,-99.99,,,-99.99,,2013-02-28 21:11:00,
2013-02-28 13:22:00,50.0,-99.9,30.46,NW,314,10.0,15.0,-999,-99.99,,,-99.99,,2013-02-28 21:22:00,
2013-02-28 13:32:00,50.0,-99.9,30.45,NW,312,13.0,15.0,-999,-99.99,,,-99.99,,2013-02-28 21:32:00,
2013-02-28 13:42:00,50.0,-99.9,30.45,NW,308,16.0,19.0,-999,-99.99,,,-99.99,,2013-02-28 21:42:00,
2013-02-28 13:52:00,49.0,-99.9,30.45,NW,307,18.0,20.0,-999,-99.99,,,-99.99,,2013-02-28 21:52:00,
2013-02-28 14:02:00,49.0,-99.9,30.44,NW,309,19.0,22.0,-999,-99.99,,,-99.99,,2013-02-28 22:02:00,
2013-02-28 14:11:00,50.0,-99.9,30.44,NW,308,13.0,20.0,-999,-99.99,,,-99.99,,2013-02-28 22:11:00,
2013-02-28 14:22:00,50.0,-99.9,30.44,WNW,303,17.0,20.0,-999,-99.99,,,-99.99,,2013-02-28 22:22:00,
2013-02-28 14:32:00,50.0,-99.9,30.44,NW,306,16.0,20.0,-999,-99.99,,,-99.99,,2013-02-28 22:32:00,
2013-02-28 14:42:00,50.0,-99.9,30.44,NW,304,18.0,23.0,-999,-99.99,,,-99.99,,2013-02-28 22:42:00,
2013-02-28 14:52:00,50.0,-99.9,30.44,NW,306,19.0,24.0,-999,-99.99,,,-99.99,,2013-02-28 22:52:00,
2013-02-28 15:02:00,50.0,-99.9,30.44,NW,308,20.0,23.0,-999,-99.99,,,-99.99,,2013-02-28 23:02:00,
2013-02-28 15:12:00,50.0,-99.9,30.44,WNW,303,21.0,28.0,-999,-99.99,,,-99.99,,2013-02-28 23:12:00,
2013-02-28 15:22:00,50.0,-99.9,30.44,WNW,301,21.0,24.0,-999,-99.99,,,-99.99,,2013-02-28 23:22:00,
2013-02-28 15:32:00,50.0,-99.9,30.44,WNW,301,18.0,24.0,-999,-99.99,,,-99.99,,2013-02-28 23:32:00,
2013-02-28 15:42:00,50.0,-99.9,30.43,NW,307,18.0,23.0,-999,-99.99,,,-99.99,,2013-02-28 23:42:00,
2013-02-28 15:53:00,50.0,-99.9,30.44,NW,308,16.0,20.0,-999,-99.99,,,-99.99,,2013-02-28 23:53:00,
2013-02-28 16:02:00,50.0,-99.9,30.43,WNW,302,16.0,21.0,-999,-99.99,,,-99.99,,2013-03-01 00:02:00,
2013-02-28 16:11:00,50.0,-99.9,30.43,WNW,300,17.0,21.0,-999,-99.99,,,-99.99,,2013-03-01 00:11:00,
2013-02-28 16:23:00,50.0,-99.9,30.42,WNW,299,18.0,22.0,-999,-99.99,,,-99.99,,2013-03-01 00:23:00,
2013-02-28 16:32:00,50.0,-99.9,30.42,WNW,299,19.0,22.0,-999,-99.99,,,-99.99,,2013-03-01 00:32:00,
2013-02-28 16:42:00,50.0,-99.9,30.42,WNW,299,19.0,21.0,-999,-99.99,,,-99.99,,2013-03-01 00:42:00,
2013-02-28 16:52:00,50.0,-99.9,30.42,WNW,296,19.0,22.0,-999,-99.99,,,-99.99,,2013-03-01 00:52:00,
2013-02-28 17:01:00,50.0,-99.9,30.42,NW,305,18.0,21.0,-999,-99.99,,,-99.99,,2013-03-01 01:01:00,
2013-02-28 17:11:00,50.0,-99.9,30.42,NW,305,17.0,21.0,-999,-99.99,,,-99.99,,2013-03-01 01:11:00,
2013-02-28 17:22:00,50.0,-99.9,30.42,NW,306,17.0,20.0,-999,-99.99,,,-99.99,,2013-03-01 01:22:00,
2013-02-28 17:32:00,50.0,-99.9,30.42,NW,307,15.0,21.0,-999,-99.99,,,-99.99,,2013-03-01 01:32:00,
2013-02-28 17:42:00,50.0,-99.9,30.42,NW,307,17.0,19.0,-999,-99.99,,,-99.99,,2013-03-01 01:42:00,
2013-02-28 17:52:00,50.0,-99.9,30.42,NW,304,16.0,19.0,-999,-99.99,,,-99.99,,2013-03-01 01:52:00,
2013-02-28 18:01:00,50.0,-99.9,30.43,NW,311,15.0,19.0,-999,-99.99,,,-99.99,,2013-03-01 02:01:00,
2013-02-28 18:11:00,50.0,-99.9,30.43,NW,307,14.0,18.0,-999,-99.99,,,-99.99,,2013-03-01 02:11:00,
2013-02-28 18:22:00,50.0,-99.9,30.43,NW,307,15.0,18.0,-999,-99.99,,,-99.99,,2013-03-01 02:22:00,
2013-02-28 18:32:00,50.0,-99.9,30.43,NW,313,11.0,15.0,-999,-99.99,,,-99.99,,2013-03-01 02:32:00,
2013-02-28 18:42:00,50.0,-99.9,30.43,WNW,297,15.0,18.0,-999,-99.99,,,-99.99,,2013-03-01 02:42:00,
2013-02-28 18:52:00,50.0,-99.9,30.42,WNW,301,17.0,21.0,-999,-99.99,,,-99.99,,2013-03-01 02:52:00,
2013-02-28 19:02:00,50.0,-99.9,30.42,WNW,292,19.0,22.0,-999,-99.99,,,-99.99,,2013-03-01 03:02:00,
2013-02-28 19:12:00,50.0,-99.9,30.42,WNW,295,21.0,25.0,-999,-99.99,,,-99.99,,2013-03-01 03:12:00,
2013-02-28 19:22:00,50.0,-99.9,30.42,WNW,292,21.0,27.0,-999,-99.99,,,-99.99,,2013-03-01 03:22:00,
2013-02-28 19:32:00,50.0,-99.9,30.43,WNW,296,21.0,26.0,-999,-99.99,,,-99.99,,2013-03-01 03:32:00,
2013-02-28 19:42:00,50.0,-99.9,30.43,WNW,297,20.0,24.0,-999,-99.99,,,-99.99,,2013-03-01 03:42:00,
2013-02-28 19:52:00,49.0,-99.9,30.44,NW,306,20.0,26.0,-999,-99.99,,,-99.99,,2013-03-01 03:52:00,
2013-02-28 20:02:00,49.0,-99.9,30.45,NW,315,15.0,20.0,-999,-99.99,,,-99.99,,2013-03-01 04:02:00,
2013-02-28 20:12:00,49.0,-99.9,30.45,NW,312,15.0,18.0,-999,-99.99,,,-99.99,,2013-03-01 04:12:00,
2013-02-28 20:22:00,49.0,-99.9,30.45,NW,312,15.0,19.0,-999,-99.99,,,-99.99,,2013-03-01 04:22:00,
2013-02-28 20:32:00,49.0,-99.9,30.45,NW,309,18.0,21.0,-999,-99.99,,,-99.99,,2013-03-01 04:32:00,
2013-02-28 20:42:00,49.0,-99.9,30.45,NW,304,17.0,23.0,-999,-99.99,,,-99.99,,2013-03-01 04:42:00,
2013-02-28 20:52:00,49.0,-99.9,30.45,NW,309,17.0,22.0,-999,-99.99,,,-99.99,,2013-03-01 04:52:00,
2013-02-28 21:02:00,49.0,-99.9,30.45,NW,323,16.0,19.0,-999,-99.99,,,-99.99,,2013-03-01 05:02:00,
2013-02-28 21:11:00,49.0,-99.9,30.45,NW,319,14.0,18.0,-999,-99.99,,,-99.99,,2013-03-01 05:11:00,
2013-02-28 21:22:00,49.0,-99.9,30.45,NW,314,15.0,18.0,-999,-99.99,,,-99.99,,2013-03-01 05:22:00,
2013-02-28 21:33:00,50.0,-99.9,30.45,NW,323,12.0,18.0,-999,-99.99,,,-99.99,,2013-03-01 05:33:00,
2013-02-28 21:42:00,50.0,-99.9,30.45,NNW,334,10.0,14.0,-999,-99.99,,,-99.99,,2013-03-01 05:42:00,
2013-02-28 21:53:00,50.0,-99.9,30.45,NNW,332,9.0,14.0,-999,-99.99,,,-99.99,,2013-03-01 05:53:00,
2013-02-28 22:02:00,50.0,-99.9,30.45,NW,321,11.0,13.0,-999,-99.99,,,-99.99,,2013-03-01 06:02:00,
2013-02-28 22:12:00,50.0,-99.9,30.45,NW,317,12.0,16.0,-999,-99.99,,,-99.99,,2013-03-01 06:12:00,
2013-02-28 22:22:00,50.0,-99.9,30.45,NW,324,12.0,15.0,-999,-99.99,,,-99.99,,2013-03-01 06:22:00,
2013-02-28 22:32:00,50.0,-99.9,30.45,NW,316,13.0,17.0,-999,-99.99,,,-99.99,,2013-03-01 06:32:00,
2013-02-28 22:43:00,50.0,-99.9,30.45,NW,305,16.0,19.0,-999,-99.99,,,-99.99,,2013-03-01 06:43:00,
2013-02-28 22:53:00,51.0,-99.9,30.45,NW,310,16.0,20.0,-999,-99.99,,,-99.99,,2013-03-01 06:53:00,
2013-02-28 23:02:00,51.0,-99.9,30.45,WNW,292,17.0,20.0,-999,-99.99,,,-99.99,,2013-03-01 07:02:00,
2013-02-28 23:12:00,51.0,-99.9,30.44,WNW,297,17.0,21.0,-999,-99.99,,,-99.99,,2013-03-01 07:12:00,
2013-02-28 23:22:00,51.0,-99.9,30.44,WNW,298,17.0,20.0,-999,-99.99,,,-99.99,,2013-03-01 07:22:00,
2013-02-28 23:33:00,51.0,-99.9,30.43,WNW,292,19.0,23.0,-999,-99.99,,,-99.99,,2013-03-01 07:33:00,
2013-02-28 23:42:00,50.0,-99.9,30.43,WNW,286,17.0,22.0,-999,-99.99,,,-99.99,,2013-03-01 07:42:00,
2013-02-28 23:52:00,51.0,-99.9,30.43,WNW,286,18.0,22.0,-999,-99.99,,,-99.99,,2013-03-01 07:52:00,